[Iaude] MPEC M132: 2020 MO3 [a=0.95,e=0.21,i=1.6,H=24.5]

mpec at marsden.cfa.harvard.edu mpec at marsden.cfa.harvard.edu
Sun Jun 28 18:31:13 EDT 2020


M.P.E.C. 2020-M132                                Issued 2020 June 28, 22:29 UT

     The Minor Planet Electronic Circulars contain information on unusual
         minor planets and routine data on comets.  They are published
    on behalf of Division F of the International Astronomical Union by the
          Minor Planet Center, Smithsonian Astrophysical Observatory,
                          Cambridge, MA 02138, U.S.A.

             Prepared using the Tamkin Foundation Computer Network

                              MPC at CFA.HARVARD.EDU
            URL https://www.minorplanetcenter.net/    ISSN 1523-6714

                                    2020 MO3                                    


Observations:
     K20M03O  C2020 06 16.57111522 12 13.695-20 03 44.78         21.57GVEM132F51
     K20M03O  C2020 06 16.57303822 12 13.369-20 03 48.06         23.18GVEM132F51
     K20M03O  C2020 06 16.57962522 12 12.267-20 03 59.49         21.32GVEM132F51
     K20M03O  C2020 06 16.58155622 12 11.946-20 04 02.90         21.73GVEM132F51
     K20M03O  C2020 06 16.58782422 12 10.881-20 04 12.92         21.80GVEM132F51
     K20M03O  C2020 06 16.58976222 12 10.574-20 04 16.84         21.90GVEM132F51
     K20M03O  C2020 06 16.59602222 12 09.520-20 04 27.53         21.97GVEM132F51
     K20M03O* C2020 06 27.52572521 37 57.287-25 41 40.79         21.14wUEM132F51
     K20M03O  C2020 06 27.54892121 37 50.954-25 42 27.23         21.46wUEM132F51
     K20M03O  C2020 06 27.56051421 37 47.751-25 42 50.37         21.87wUEM132F51
     K20M03O ^C2020 06 28.58674521 33 33.498-26 16 29.69         22.05GVEM132568
     K20M03O ^C2020 06 28.58771221 33 33.221-26 16 31.55         21.44GVEM132568
     K20M03O ^C2020 06 28.58866921 33 32.947-26 16 33.40         21.13GVEM132568

Observer details:
568 Mauna Kea.  Observers R. Wainscoat, C. Wipper, S. Prunet.  Measurers R.
    Weryk, R. Wainscoat.  3.6-m Canada-France-Hawaii Telescope + CCD.
F51 Pan-STARRS 1, Haleakala.  Observers J. Bulger, K. Chambers, T. Lowe, A.
    Schultz, M. Willman.  Measurers S. Chastel, M. Huber, Y. Ramanjooloo, R.
    Wainscoat, R. Weryk, K. Chambers, T. de Boer, L. Denneau, J. Fairlamb, H.
    Flewelling, C.-C. Lin, E. Magnier.  1.8-m Ritchey-Chretien + CCD.

Orbital elements:
2020 MO3                                                 Earth MOID = 0.0086 AU
Epoch 2020 May 31.0 TT = JDT 2459000.5                  Pan
M 104.29145              (2000.0)            P               Q
n   1.06673406     Peri.   77.86133     -0.66669837     -0.74499792
a   0.9486338      Node    53.97426     +0.67272375     -0.61429156
e   0.2090515      Incl.    1.57062     +0.32086763     -0.26004610
P   0.92           H   24.5           G   0.15           U   8
Residuals in seconds of arc
200616 F51  0.1+  0.1+    200616 F51  0.1+  0.2-    200628 568  0.0   0.0
200616 F51  0.0   0.1+    200616 F51  0.0   0.2-    200628 568  0.0   0.0
200616 F51  0.0   0.1-    200627 F51  0.1-  0.0     200628 568  0.0   0.0
200616 F51  0.0   0.2-    200627 F51  0.2+  0.1+
200616 F51  0.2-  0.5+    200627 F51  0.1-  0.1-

Ephemeris:
2020 MO3                 a,e,i = 0.95, 0.21, 2                   q = 0.7503
Date    TT    R. A. (2000) Decl.     Delta      r    Elong.  Phase     V
2020 05 29    22 39 09.7 -13 06 58   0.1404  1.0267    91.4    80.7    23.1
...
2020 06 13    22 19 40.0 -18 27 57   0.1275  1.0697   111.9    61.7    22.4
...
2020 06 21    22 00 36.6 -22 12 21   0.1200  1.0892   124.8    50.0    21.9
...
2020 06 27    21 40 01.4 -25 23 32   0.1155  1.1020   135.6    40.2    21.6
2020 06 28    21 36 00.6 -25 56 19   0.1149  1.1040   137.5    38.5    21.6
2020 06 29    21 31 49.7 -26 29 06   0.1144  1.1060   139.4    36.8    21.5
...
2020 07 05    21 03 24.8 -29 39 30   0.1129  1.1167   151.0    26.2    21.2
...
2020 07 13    20 19 01.2 -33 01 18   0.1159  1.1286   164.4    14.0    20.9
...
2020 07 28    19 02 19.0 -34 51 25   0.1390  1.1429   155.0    22.1    21.6

M. P. C. Staff               (C) Copyright 2020 MPC           M.P.E.C. 2020-M132




More information about the Iaude mailing list